Location: Berlin
(38.3226°N, 75.2177°W)
Time: 23:46:41
(UTC+00:00)

COSMO-SKYMED 1 - Pass Details

Date: 26 October 2020
Orbit: 621 x 623 km, 97.9° (Epoch: 05 December)

Event Time Altitude Azimuth Distance (km) Brightness Sun altitude
Rises 10:48:39 0° 186° (S) 2,889 6.1 -7.1°
Reaches altitude 10° 10:50:58 10° 194° (SSW) 1,987 5.1 -6.6°
Maximum altitude 10:54:58 36° 262° (W) 983 3.1 -5.9°
Drops below altitude 10° 10:59:00 10° 330° (NNW) 2,001 4.8 -5.1°
Sets 11:01:21 0° 339° (NNW) 2,912 5.7 -4.6°
